Location: Newark
(37.8444°N, 127.0614°E)
Time: 00:38:36
(UTC+00:00)

XW-2F - Pass Details

Date: 29 January 2020
Orbit: 502 x 523 km, 97.5° (Epoch: 27 February)

Event Time Altitude Azimuth Distance (km) Brightness Sun altitude
Rises 20:51:26 0° 27° (NNE) 2,604 ? -21.2°
Reaches altitude 10° 20:53:53 10° 43° (NE) 1,715 ? -20.8°
Maximum altitude 20:56:47 22° 95° (E) 1,149 ? -20.2°
Drops below altitude 10° 20:59:40 10° 147° (SSE) 1,705 ? -19.6°
Sets 21:02:05 0° 163° (SSE) 2,586 ? -19.1°
